sat.trackr.live / text

‹ back to catalog

KUIPER-00064

NORAD 64524 · 2025-134AA

PAYLOAD ACTIVE UNKNOWN

§ Identity

Operator
Country
US
Launch date
2025-06-23
Launch site
AFETR
Launch vehicle
Mass (kg)
RCS (m²)

External: N2YO · Heavens-Above · Gunter

§ Orbital elements

Epoch: 2026-09-21T19:14:32.374176Z

Period
97.30 min
Inclination
51.9011°
Eccentricity
0.0000945
Mean motion
14.79929863 rev/d
Perigee alt
628.9 km
Apogee alt
630.2 km
Semi-major
7,007.7 km
B*
6.1536e-5
RAAN
88.3658°
Arg perigee
122.3213°
Mean anomaly
237.7841°
Rev number
6,908

§ Raw data

KUIPER-000641 64524U 25134AA  26264.80176359  .00000248  00000+0  61536-4 0  99932 64524  51.9011  88.3658 0000945 122.3213 237.7841 14.79929863 69083

JSON: /api/v1/satellites/64524 · /tle

For live sub-satellite position, see the globe view (requires WebGL).

§ Visibility from observer

Set your observer location to see the next 7 days of passes ≥ 10°. The values pass through the URL so the page stays shareable.

No JS? Fill the form by hand. The geolocation button needs JavaScript.